User: anonymous   Login
Location: Granada
(37.1830°N, 3.6000°W)
Time: 17:03:17
(UTC+01:00)
Language:

Iridium 70 - Orbit

View from above orbital plane
View from above orbital plane
View from above satellite
View from above satellite

Ground track
Ground track

The orbit data is extracted from the following two-line orbital elements,

1 25342U 98032A   17019.34806494  .00000183  00000-0  58330-4 0  9999
2 25342  86.3975 286.4597 0002114  87.8632  50.5507 14.34219005977766
Epoch (UTC): 19 January 2017 08:21:12
Eccentricity: 0.0002114
inclination: 86.3975°
perigee height: 776 km
apogee height: 779 km
right ascension of ascending node: 286.4597°
argument of perigee: 87.8632°
revolutions per day: 14.34219005
mean anomaly at epoch: 50.5507°
orbit number at epoch: 97776

The dashed part of the orbit path shows where the satellite is in the earth's shadow,  

DLR